This demonstration page uses our WeatherBlox Daily Observations layout. Learn more.

Hourly Observations for July 19, 2017

Temp ( °F °C ) Dew Point ( °F °C ) Humidity (%) Winds ( mph kmh ) Pressure ( in mb ) Visibility ( mi km ) Precip ( " mm )
12:54 am 00:54 Clear 82 27.8 71 21.7 69 69 SE 9 15 29.99 1016 10 16.0934 0 0
1:54 am 01:54 Clear 81 27.2 70 21.1 69 69 SSE 9 15 30 1016 10 16.0934 0 0
2:54 am 02:54 Cloudy 80 26.7 70 21.1 71 71 SSE 13 20 29.99 1016 10 16.0934 0 0
3:54 am 03:54 Partly Cloudy 77 25 70 21.1 79 79 S 9 15 29.97 1015 10 16.0934 0 0
4:54 am 04:54 Mostly Clear 75 23.9 70 21.1 84 84 S 7 11 29.96 1015 9 14.48406 0 0
5:54 am 05:54 Clear 75 23.9 70 21.1 84 84 SSE 7 11 29.96 1015 10 16.0934 0 0
6:54 am 06:54 Mostly Cloudy 78 25.6 70 21.1 76 76 SE 15 24 29.98 1015 9 14.48406 0 0
7:54 am 07:54 Sunny 80 26.7 71 21.7 74 74 SE 14 22 29.99 1016 10 16.0934 0 0
8:54 am 08:54 Sunny 82 27.8 72 22.2 72 72 S 17 28 29.99 1016 10 16.0934 0 0
9:54 am 09:54 Sunny 85 29.4 72 22.2 65 65 S 16 26 29.99 1016 10 16.0934 0 0
10:54 am 10:54 Sunny 85 29.4 73 22.8 68 68 S 18 30 29.97 1015 10 16.0934 0 0
11:54 am 11:54 Sunny 87 30.6 74 23.3 65 65 S 22 35 29.96 1015 10 16.0934 0 0
12:54 pm 12:54 Sunny 89 31.7 75 23.9 63 63 S 15 24 29.95 1014 10 16.0934 0 0
1:54 pm 13:54 Sunny 90 32.2 76 24.4 63 63 S 18 30 29.92 1013 10 16.0934 0 0
2:54 pm 14:54 Sunny 92 33.3 75 23.9 58 58 S 22 35 29.91 1013 10 16.0934 0 0
3:54 pm 15:54 Sunny 94 34.4 76 24.4 56 56 S 24 39 29.89 1012 10 16.0934 0 0
4:54 pm 16:54 Sunny 95 35 76 24.4 54 54 S 14 22 29.88 1012 10 16.0934 0 0
5:54 pm 17:54 Sunny 95 35 75 23.9 53 53 S 16 26 29.85 1011 10 16.0934 0 0
6:54 pm 18:54 Sunny 94 34.4 73 22.8 51 51 S 14 22 29.86 1011 10 16.0934 0 0
7:54 pm 19:54 Sunny 90 32.2 74 23.3 59 59 S 12 19 29.85 1011 10 16.0934 0 0
8:54 pm 20:54 Sunny 87 30.6 74 23.3 65 65 S 9 15 29.87 1012 10 16.0934 0 0
9:54 pm 21:54 Clear 86 30 71 21.7 61 61 S 12 19 29.87 1011 10 16.0934 0 0
10:54 pm 22:54 Clear 86 30 70 21.1 59 59 S 13 20 29.89 1012 10 16.0934 0 0
11:54 pm 23:54 Clear 85 29.4 70 21.1 61 61 S 16 26 29.89 1012 10 16.0934 0 0

Powered by AerisWeather